Time,TemperatureF,DewpointF,PressureIn,WindDirection,WindDirectionDegrees,WindSpeedMPH,WindSpeedGustMPH,Humidity,HourlyPrecipIn,Conditions,Clouds,dailyrainin,SoftwareType,DateUTC
2013-02-27 00:08:00,27.8,26.0,29.83,NW,311,7.0,16.0,93,0.00,,,0.00,weatherlink.com 1.10,2013-02-27 06:08:00,
2013-02-27 00:23:00,27.6,26.0,29.82,NW,313,14.0,15.0,93,0.00,,,0.00,weatherlink.com 1.10,2013-02-27 06:23:00,
2013-02-27 00:38:00,27.4,26.0,29.82,NW,317,7.0,16.0,93,0.00,,,0.00,weatherlink.com 1.10,2013-02-27 06:38:00,
2013-02-27 00:53:00,27.2,26.0,29.82,NW,306,9.0,17.0,93,0.00,,,0.00,weatherlink.com 1.10,2013-02-27 06:53:00,
2013-02-27 01:08:00,27.1,25.0,29.82,NW,317,6.0,17.0,93,0.00,,,0.00,weatherlink.com 1.10,2013-02-27 07:08:00,
2013-02-27 01:23:00,27.0,25.0,29.82,NW,319,12.0,14.0,93,0.00,,,0.00,weatherlink.com 1.10,2013-02-27 07:23:00,
2013-02-27 01:38:00,26.9,25.0,29.82,NW,323,4.0,16.0,93,0.00,,,0.00,weatherlink.com 1.10,2013-02-27 07:38:00,
2013-02-27 01:53:00,26.9,25.0,29.82,NW,315,2.0,18.0,93,0.00,,,0.00,weatherlink.com 1.10,2013-02-27 07:53:00,
2013-02-27 02:08:00,26.7,25.0,29.82,NW,317,12.0,15.0,93,0.00,,,0.00,weatherlink.com 1.10,2013-02-27 08:08:00,
2013-02-27 02:23:00,26.4,25.0,29.82,NW,315,5.0,15.0,93,0.00,,,0.00,weatherlink.com 1.10,2013-02-27 08:23:00,
2013-02-27 02:38:00,26.2,24.0,29.82,NW,317,7.0,17.0,92,0.00,,,0.00,weatherlink.com 1.10,2013-02-27 08:38:00,
2013-02-27 02:53:00,26.1,24.0,29.82,NW,317,8.0,18.0,92,0.00,,,0.00,weatherlink.com 1.10,2013-02-27 08:53:00,
2013-02-27 03:08:00,25.9,24.0,29.82,NW,311,3.0,18.0,92,0.00,,,0.00,weatherlink.com 1.10,2013-02-27 09:08:00,
2013-02-27 03:23:00,25.7,24.0,29.82,NW,306,4.0,16.0,92,0.00,,,0.00,weatherlink.com 1.10,2013-02-27 09:23:00,
2013-02-27 03:38:00,25.6,24.0,29.82,NW,321,8.0,16.0,92,0.00,,,0.00,weatherlink.com 1.10,2013-02-27 09:38:00,
2013-02-27 03:53:00,25.6,24.0,29.83,NW,315,16.0,16.0,92,0.00,,,0.00,weatherlink.com 1.10,2013-02-27 09:53:00,
2013-02-27 04:08:00,25.5,24.0,29.83,NW,316,4.0,17.0,92,0.00,,,0.00,weatherlink.com 1.10,2013-02-27 10:08:00,
2013-02-27 04:23:00,25.3,23.0,29.83,NW,319,10.0,16.0,92,0.00,,,0.00,weatherlink.com 1.10,2013-02-27 10:23:00,
2013-02-27 04:38:00,25.2,23.0,29.83,NW,312,8.0,16.0,92,0.00,,,0.00,weatherlink.com 1.10,2013-02-27 10:38:00,
2013-02-27 04:53:00,25.1,23.0,29.83,NW,320,12.0,15.0,92,0.00,,,0.00,weatherlink.com 1.10,2013-02-27 10:53:00,
2013-02-27 05:08:00,25.1,23.0,29.83,NW,319,5.0,15.0,92,0.00,,,0.00,weatherlink.com 1.10,2013-02-27 11:08:00,
2013-02-27 05:23:00,24.9,23.0,29.83,NW,311,7.0,15.0,92,0.00,,,0.00,weatherlink.com 1.10,2013-02-27 11:23:00,
2013-02-27 05:38:00,24.8,23.0,29.82,NW,309,5.0,14.0,92,0.00,,,0.00,weatherlink.com 1.10,2013-02-27 11:38:00,
2013-02-27 05:53:00,24.6,23.0,29.83,WNW,292,9.0,15.0,92,0.00,,,0.00,weatherlink.com 1.10,2013-02-27 11:53:00,
2013-02-27 06:08:00,24.5,23.0,29.83,NW,326,1.0,18.0,92,0.00,,,0.00,weatherlink.com 1.10,2013-02-27 12:08:00,
2013-02-27 06:23:00,24.4,22.0,29.83,NW,323,8.0,16.0,92,0.00,,,0.00,weatherlink.com 1.10,2013-02-27 12:23:00,
2013-02-27 06:38:00,24.3,22.0,29.84,NW,314,9.0,15.0,92,0.00,,,0.00,weatherlink.com 1.10,2013-02-27 12:38:00,
2013-02-27 06:54:00,24.2,22.0,29.84,NW,313,3.0,14.0,92,0.00,,,0.00,weatherlink.com 1.10,2013-02-27 12:54:00,
2013-02-27 07:09:00,24.2,22.0,29.84,NW,308,7.0,16.0,92,0.00,,,0.00,weatherlink.com 1.10,2013-02-27 13:09:00,
2013-02-27 07:24:00,24.3,22.0,29.84,NW,316,6.0,14.0,92,0.00,,,0.00,weatherlink.com 1.10,2013-02-27 13:24:00,
2013-02-27 07:39:00,24.3,22.0,29.85,NW,304,4.0,15.0,92,0.00,,,0.00,weatherlink.com 1.10,2013-02-27 13:39:00,
2013-02-27 08:09:00,24.5,23.0,29.86,NW,309,11.0,16.0,92,0.00,,,0.00,weatherlink.com 1.10,2013-02-27 14:09:00,
2013-02-27 08:24:00,24.6,23.0,29.87,NW,308,6.0,19.0,92,0.00,,,0.00,weatherlink.com 1.10,2013-02-27 14:24:00,
2013-02-27 08:39:00,24.7,23.0,29.87,NW,320,14.0,15.0,92,0.00,,,0.00,weatherlink.com 1.10,2013-02-27 14:39:00,
2013-02-27 08:54:00,24.9,23.0,29.87,NW,315,3.0,16.0,92,0.00,,,0.00,weatherlink.com 1.10,2013-02-27 14:54:00,
2013-02-27 09:09:00,25.2,23.0,29.87,NW,305,13.0,15.0,92,0.00,,,0.00,weatherlink.com 1.10,2013-02-27 15:09:00,
2013-02-27 09:24:00,25.6,24.0,29.87,NW,313,10.0,18.0,92,0.00,,,0.00,weatherlink.com 1.10,2013-02-27 15:24:00,
2013-02-27 09:39:00,26.0,24.0,29.88,WNW,302,6.0,16.0,92,0.00,,,0.00,weatherlink.com 1.10,2013-02-27 15:39:00,
2013-02-27 09:54:00,26.5,24.0,29.88,NW,304,11.0,15.0,91,0.00,,,0.00,weatherlink.com 1.10,2013-02-27 15:54:00,
2013-02-27 10:09:00,26.6,24.0,29.89,NW,311,10.0,15.0,91,0.00,,,0.00,weatherlink.com 1.10,2013-02-27 16:09:00,
2013-02-27 10:24:00,26.7,24.0,29.89,NW,326,13.0,21.0,90,0.00,,,0.00,weatherlink.com 1.10,2013-02-27 16:24:00,
2013-02-27 10:39:00,26.8,24.0,29.89,NNW,331,11.0,18.0,90,0.00,,,0.00,weatherlink.com 1.10,2013-02-27 16:39:00,
2013-02-27 10:54:00,27.0,24.0,29.89,NW,314,13.0,19.0,89,0.00,,,0.00,weatherlink.com 1.10,2013-02-27 16:54:00,
2013-02-27 11:09:00,27.4,25.0,29.89,WNW,300,12.0,16.0,89,0.00,,,0.00,weatherlink.com 1.10,2013-02-27 17:09:00,
2013-02-27 11:24:00,27.7,25.0,29.90,NW,323,19.0,19.0,89,0.00,,,0.00,weatherlink.com 1.10,2013-02-27 17:24:00,
2013-02-27 11:39:00,28.0,25.0,29.90,NW,309,8.0,20.0,89,0.00,,,0.00,weatherlink.com 1.10,2013-02-27 17:39:00,
2013-02-27 11:54:00,28.5,26.0,29.90,NW,317,9.0,19.0,89,0.00,,,0.00,weatherlink.com 1.10,2013-02-27 17:54:00,
2013-02-27 12:09:00,29.0,26.0,29.90,NW,316,8.0,19.0,89,0.00,,,0.00,weatherlink.com 1.10,2013-02-27 18:09:00,
2013-02-27 12:24:00,29.3,26.0,29.90,WNW,288,11.0,18.0,88,0.00,,,0.00,weatherlink.com 1.10,2013-02-27 18:24:00,
2013-02-27 12:39:00,29.6,26.0,29.90,WNW,300,8.0,17.0,87,0.00,,,0.00,weatherlink.com 1.10,2013-02-27 18:39:00,
2013-02-27 12:54:00,29.3,26.0,29.90,NW,312,3.0,21.0,86,0.01,,,0.01,weatherlink.com 1.10,2013-02-27 18:54:00,
2013-02-27 13:09:00,29.0,25.0,29.90,NW,323,8.0,24.0,86,0.01,,,0.01,weatherlink.com 1.10,2013-02-27 19:09:00,
2013-02-27 13:24:00,29.0,26.0,29.90,NW,307,11.0,23.0,87,0.01,,,0.01,weatherlink.com 1.10,2013-02-27 19:24:00,
2013-02-27 13:39:00,29.4,26.0,29.90,West,271,16.0,22.0,87,0.01,,,0.01,weatherlink.com 1.10,2013-02-27 19:39:00,
2013-02-27 13:54:00,30.0,26.0,29.90,WNW,296,4.0,17.0,85,0.00,,,0.01,weatherlink.com 1.10,2013-02-27 19:54:00,
2013-02-27 14:09:00,29.7,26.0,29.90,WNW,295,16.0,19.0,85,0.00,,,0.01,weatherlink.com 1.10,2013-02-27 20:09:00,
2013-02-27 14:24:00,29.5,26.0,29.90,WNW,302,8.0,21.0,85,0.00,,,0.01,weatherlink.com 1.10,2013-02-27 20:24:00,
2013-02-27 14:39:00,29.1,25.0,29.91,NW,311,6.0,23.0,85,0.00,,,0.01,weatherlink.com 1.10,2013-02-27 20:39:00,
2013-02-27 14:54:00,28.9,25.0,29.92,NW,310,13.0,24.0,86,0.00,,,0.01,weatherlink.com 1.10,2013-02-27 20:54:00,
2013-02-27 15:09:00,28.8,25.0,29.92,NW,309,10.0,26.0,86,0.00,,,0.01,weatherlink.com 1.10,2013-02-27 21:09:00,
2013-02-27 15:39:00,28.9,25.0,29.93,NW,325,4.0,22.0,86,0.00,,,0.01,weatherlink.com 1.10,2013-02-27 21:39:00,
2013-02-27 15:54:00,29.1,26.0,29.93,WNW,296,7.0,18.0,87,0.00,,,0.01,weatherlink.com 1.10,2013-02-27 21:54:00,
2013-02-27 16:09:00,29.5,26.0,29.93,NW,317,14.0,24.0,86,0.00,,,0.01,weatherlink.com 1.10,2013-02-27 22:09:00,
2013-02-27 16:24:00,29.3,26.0,29.93,WNW,300,13.0,21.0,86,0.00,,,0.01,weatherlink.com 1.10,2013-02-27 22:24:00,
2013-02-27 16:39:00,29.4,26.0,29.94,NNW,330,5.0,16.0,85,0.00,,,0.01,weatherlink.com 1.10,2013-02-27 22:39:00,
2013-02-27 16:54:00,29.3,25.0,29.94,NW,323,4.0,17.0,85,0.00,,,0.01,weatherlink.com 1.10,2013-02-27 22:54:00,
2013-02-27 17:09:00,29.0,25.0,29.95,NNW,331,7.0,17.0,85,0.00,,,0.01,weatherlink.com 1.10,2013-02-27 23:09:00,
2013-02-27 17:25:00,29.0,25.0,29.95,NW,312,4.0,16.0,86,0.00,,,0.01,weatherlink.com 1.10,2013-02-27 23:25:00,
2013-02-27 17:39:00,28.9,25.0,29.95,NW,323,7.0,17.0,86,0.00,,,0.01,weatherlink.com 1.10,2013-02-27 23:39:00,
2013-02-27 17:55:00,28.9,25.0,29.95,NW,321,9.0,12.0,86,0.00,,,0.01,weatherlink.com 1.10,2013-02-27 23:55:00,
2013-02-27 18:10:00,28.9,26.0,29.95,NW,317,8.0,14.0,87,0.00,,,0.01,weatherlink.com 1.10,2013-02-28 00:10:00,
2013-02-27 18:25:00,29.0,26.0,29.96,NW,310,2.0,16.0,87,0.00,,,0.01,weatherlink.com 1.10,2013-02-28 00:25:00,
2013-02-27 18:55:00,29.4,26.0,29.96,NW,313,9.0,16.0,87,0.00,,,0.01,weatherlink.com 1.10,2013-02-28 00:55:00,
2013-02-27 19:10:00,29.6,26.0,29.97,NW,314,5.0,19.0,86,0.00,,,0.01,weatherlink.com 1.10,2013-02-28 01:10:00,
2013-02-27 19:25:00,29.8,26.0,29.97,NW,313,5.0,22.0,85,0.00,,,0.01,weatherlink.com 1.10,2013-02-28 01:25:00,
2013-02-27 19:40:00,30.0,25.0,29.98,NW,323,14.0,19.0,83,0.00,,,0.01,weatherlink.com 1.10,2013-02-28 01:40:00,
2013-02-27 19:55:00,30.2,26.0,29.98,NW,321,6.0,18.0,83,0.00,,,0.01,weatherlink.com 1.10,2013-02-28 01:55:00,
2013-02-27 20:10:00,30.3,26.0,29.98,NW,304,11.0,17.0,83,0.00,,,0.01,weatherlink.com 1.10,2013-02-28 02:10:00,
2013-02-27 20:25:00,30.2,26.0,29.98,NW,304,4.0,13.0,83,0.00,,,0.01,weatherlink.com 1.10,2013-02-28 02:25:00,
2013-02-27 20:40:00,30.2,26.0,29.98,NW,319,6.0,18.0,84,0.00,,,0.01,weatherlink.com 1.10,2013-02-28 02:40:00,
2013-02-27 20:55:00,30.5,26.0,29.99,WNW,303,6.0,18.0,83,0.00,,,0.01,weatherlink.com 1.10,2013-02-28 02:55:00,
2013-02-27 21:10:00,30.7,26.0,29.99,NW,312,13.0,23.0,83,0.00,,,0.01,weatherlink.com 1.10,2013-02-28 03:10:00,
2013-02-27 21:25:00,30.4,26.0,30.00,NW,306,17.0,26.0,84,0.00,,,0.01,weatherlink.com 1.10,2013-02-28 03:25:00,
2013-02-27 21:40:00,29.9,26.0,30.00,NW,318,15.0,26.0,84,0.00,,,0.01,weatherlink.com 1.10,2013-02-28 03:40:00,
2013-02-27 21:55:00,29.3,25.0,30.01,NW,315,11.0,21.0,84,0.00,,,0.01,weatherlink.com 1.10,2013-02-28 03:55:00,
2013-02-27 22:10:00,28.7,25.0,30.00,WNW,292,12.0,25.0,85,0.00,,,0.01,weatherlink.com 1.10,2013-02-28 04:10:00,
2013-02-27 22:25:00,28.0,24.0,30.01,WNW,282,5.0,23.0,85,0.00,,,0.01,weatherlink.com 1.10,2013-02-28 04:25:00,
2013-02-27 22:40:00,27.4,24.0,30.01,NW,317,8.0,22.0,85,0.00,,,0.01,weatherlink.com 1.10,2013-02-28 04:40:00,
2013-02-27 22:55:00,26.9,23.0,30.01,NW,309,14.0,25.0,86,0.00,,,0.01,weatherlink.com 1.10,2013-02-28 04:55:00,
2013-02-27 23:10:00,26.3,23.0,30.02,NW,326,16.0,23.0,86,0.00,,,0.01,weatherlink.com 1.10,2013-02-28 05:10:00,
2013-02-27 23:25:00,25.7,22.0,30.03,NW,325,12.0,22.0,86,0.00,,,0.01,weatherlink.com 1.10,2013-02-28 05:25:00,
2013-02-27 23:40:00,25.1,22.0,30.03,WNW,293,10.0,23.0,86,0.00,,,0.01,weatherlink.com 1.10,2013-02-28 05:40:00,
2013-02-27 23:55:00,24.5,21.0,30.03,NW,309,15.0,24.0,86,0.00,,,0.01,weatherlink.com 1.10,2013-02-28 05:55:00,